Miscellaneous Local Product
Issued by NWS Hastings, NE

Home | Current Version | Previous Version | Graphics & Text | Print | Product List | Glossary On
Versions: 1 2 3 4 5 6 7 8 9 10 11 12 13 14 15 16 17 18 19 20 21 22 23 24 25 26 27 28 29 30 31 32 33 34 35 36 37 38 39 40 41 42 43 44 45 46 47 48 49 50
000
AXUS43 KGID 230202
MISGRI

GID CWA HOURLY WEATHER ROUNDUP
NATIONAL WEATHER SERVICE HASTINGS NE
800 PM CST THU FEB 22 2018

NOTE: "FAIR" INDICATES FEW OR NO CLOUDS BELOW 12,000 FEET WITH NO
SIGNIFICANT WEATHER AND/OR OBSTRUCTIONS TO VISIBILITY.

...SOUTH CENTRAL NEBRASKA...

CITY           SKY/WX    TMP DP  RH WIND       PRES   REMARKS
GRAND ISLAND   CLOUDY    26  25  96 SW3       30.17R FOG
KEARNEY        CLOUDY    25  23  92 SW6       30.16R WCI  18
HASTINGS       CLOUDY    26  24  92 W5        30.16R FOG     WCI  20
ORD            CLOUDY    23  20  88 SW3       30.13S
YORK           LGT SNOW  27  27 100 CALM      30.18R
AURORA         CLOUDY    27  25  95 CALM      30.17R FOG
LEXINGTON      CLOUDY    25  22  87 W6        30.13S WCI  18
HOLDREGE       CLOUDY    25  25  99 W3        30.14R
HEBRON         MIX PCPN  31  30  97 CALM      30.17S

...NEBRASKA PANHANDLE...

CITY           SKY/WX    TMP DP  RH WIND       PRES   REMARKS
CHADRON        CLEAR      7   4  87 W3        30.07R
ALLIANCE       PTCLDY    12  12 100 SW5       30.03R WCI   4
SCOTTSBLUFF    PTCLDY    12  10  92 E6        30.03R WCI   3
SIDNEY         MOCLDY    20  15  81 W7        30.03R WCI  11

...WESTERN AND NORTH CENTRAL NEBRASKA...

CITY           SKY/WX    TMP DP  RH WIND       PRES   REMARKS
VALENTINE      CLOUDY    18  14  84 SW7       30.09R WCI   9
AINSWORTH      CLOUDY    21  20  96 SW5       30.08F WCI  15
ONEILL         CLOUDY    22  22  98 CALM      30.13F
BROKEN BOW     CLOUDY    23  18  81 W5        30.12R WCI  17
IMPERIAL       CLOUDY    22  18  85 E6        30.07R WCI  14
NORTH PLATTE   CLOUDY    23  16  74 CALM      30.10S
MCCOOK         CLOUDY    23  22  96 CALM      30.11S

...EASTERN NEBRASKA...

CITY           SKY/WX    TMP DP  RH WIND       PRES   REMARKS
NORFOLK        SNOW      24  24 100 W3        30.15S VSB 1/2
SO SIOUX CITY  LGT SNOW  26  26 100 W3        30.20R VSB 1
TEKAMAH        LGT SNOW  28  28 100 S7        30.21R FOG     WCI  21
COLUMBUS       LGT SNOW  26  23  88 CALM      30.19R FOG
ALBION         LGT SNOW  25  23  91 CALM      30.16S
OMAHA EPPLEY   FRZ DRZL  32  30  92 SW5       30.21F FOG     WCI  27
OFFUTT AFB     FRZ RAIN  31  30  96 CALM      30.19F FOG
MILLARD        LGT SNOW  32  31  94 CALM      30.19F
LINCOLN        CLOUDY    30  29  96 S3        30.20S FOG
NEBRASKA CITY  MIX PCPN  32  32 100 SW3       30.19F
BEATRICE       CLOUDY    32  32  99 CALM      30.17S FOG
FALLS CITY     FRZ RAIN  31  30  96 SW5       30.20R FOG     WCI  26

...NORTHERN KANSAS...

CITY           SKY/WX    TMP DP  RH WIND       PRES   REMARKS
GOODLAND       CLEAR     18  15  88 NE6       30.04R WCI  10
HILL CITY      CLOUDY    26  26 100 N3        30.14R FOG
NORTON         CLOUDY    25  21  86 N3        30.12S FOG
PHILLIPSBURG   CLOUDY    27  27 100 CALM      30.17S FOG
SMITH CENTER   CLOUDY    27  25  93 CALM      30.18R FOG
BELOIT         CLOUDY    28  28 100 CALM      30.17R FOG
HAYS           CLOUDY    29  28  96 N5        30.14R FOG     WCI  24
RUSSELL        CLOUDY    31  31 100 NW5       30.13R FOG     WCI  26
CONCORDIA      CLOUDY    30  30 100 CALM      30.16R FOG
SALINA         CLOUDY    32  31  96 CALM      30.16F FOG
TOPEKA         LGT RAIN  33  33 100 CALM      30.18S FOG



USA.gov is the U.S. government's official web portal to all federal, state and local government web resources and services.